| time (UTC) | temp C | wind direction | speed KPH | gust KPH | rain 1hr cm | rain 24hr cm | rain mn cm | humidity % | barometer mb |
| 20260504081818 | 8 | 180 | 0.0 | 0.0 | 0.00 | 0.00 | 0.00 | 64 | 1014.8 |
| 20260504081318 | 8 | 180 | 0.0 | 0.0 | 0.00 | 0.00 | 0.00 | 59 | 1014.7 |
| 20260504080824 | 8 | 180 | 0.0 | 0.0 | 0.00 | 0.00 | 0.00 | 57 | 1014.7 |
| 20260504080317 | 7 | 180 | 0.0 | 0.0 | 0.00 | 0.00 | 0.00 | 58 | 1014.6 |
| 20260504070308 | 5 | 180 | 0.0 | 0.0 | 0.00 | 0.00 | 0.00 | 67 | 1015.0 |
| 20260504050312 | 7 | 228 | 4.8 | 6.4 | 0.00 | 0.00 | 0.00 | 61 | 1015.4 |
| 20260504045808 | 6 | 227 | 4.8 | 6.4 | 0.00 | 0.00 | 0.00 | 61 | 1015.5 |
| 20260504045308 | 6 | 228 | 3.2 | 6.4 | 0.00 | 0.00 | 0.00 | 61 | 1015.5 |
| 20260504044807 | 6 | 228 | 1.6 | 6.4 | 0.00 | 0.00 | 0.00 | 61 | 1015.6 |
| 20260504044309 | 6 | 240 | 1.6 | 3.2 | 0.00 | 0.00 | 0.00 | 62 | 1015.5 |
| 20260504043809 | 6 | 240 | 0.0 | 3.2 | 0.00 | 0.00 | 0.00 | 62 | 1015.4 |
| 20260504043308 | 6 | 240 | 1.6 | 6.4 | 0.00 | 0.00 | 0.00 | 61 | 1015.4 |
| 20260504042809 | 7 | 240 | 3.2 | 6.4 | 0.00 | 0.00 | 0.00 | 61 | 1015.4 |
| 20260504042308 | 7 | 237 | 3.2 | 6.4 | 0.00 | 0.00 | 0.00 | 60 | 1015.4 |
| 20260504041809 | 7 | 237 | 3.2 | 9.7 | 0.00 | 0.00 | 0.00 | 61 | 1015.4 |
| 20260504041307 | 6 | 237 | 3.2 | 9.7 | 0.00 | 0.00 | 0.00 | 60 | 1015.3 |
| 20260504040811 | 6 | 249 | 3.2 | 6.4 | 0.00 | 0.00 | 0.00 | 60 | 1015.4 |
| 20260504040305 | 6 | 255 | 1.6 | 6.4 | 0.00 | 0.00 | 0.00 | 61 | 1015.3 |
| 20260504035803 | 7 | 257 | 0.0 | 6.4 | 0.00 | 0.00 | 0.00 | 61 | 1015.2 |
| 20260504035257 | 7 | 259 | 0.0 | 3.2 | 0.00 | 0.00 | 0.00 | 60 | 1015.1 |
| 20260504034755 | 7 | 259 | 0.0 | 4.8 | 0.00 | 0.00 | 0.00 | 60 | 1015.1 |
| 20260504034256 | 7 | 259 | 1.6 | 8.0 | 0.00 | 0.00 | 0.00 | 59 | 1015.1 |
| 20260504033759 | 7 | 259 | 1.6 | 8.0 | 0.00 | 0.00 | 0.00 | 60 | 1015.1 |
| 20260504033253 | 7 | 259 | 1.6 | 4.8 | 0.00 | 0.00 | 0.00 | 60 | 1015.1 |
| 20260504032751 | 7 | 258 | 1.6 | 3.2 | 0.00 | 0.00 | 0.00 | 60 | 1015.1 |
| 20260504032254 | 7 | 257 | 0.0 | 3.2 | 0.00 | 0.00 | 0.00 | 61 | 1015.1 |
| 20260504031753 | 7 | 258 | 0.0 | 3.2 | 0.00 | 0.00 | 0.00 | 59 | 1015.1 |
| 20260504031253 | 7 | 258 | 0.0 | 1.6 | 0.00 | 0.00 | 0.00 | 59 | 1015.2 |
| 20260504030750 | 7 | 258 | 0.0 | 1.6 | 0.00 | 0.00 | 0.00 | 58 | 1014.9 |
| 20260504030248 | 7 | 258 | 0.0 | 1.6 | 0.00 | 0.00 | 0.00 | 59 | 1015.2 |
| 20260504025744 | 7 | 258 | 0.0 | 1.6 | 0.00 | 0.00 | 0.00 | 58 | 1015.1 |
| 20260504025242 | 7 | 258 | 0.0 | 1.6 | 0.00 | 0.00 | 0.00 | 57 | 1015.0 |
| 20260504024742 | 7 | 258 | 0.0 | 4.8 | 0.00 | 0.00 | 0.00 | 57 | 1015.0 |
| 20260504024241 | 7 | 258 | 0.0 | 4.8 | 0.00 | 0.00 | 0.00 | 55 | 1015.0 |
| 20260504023740 | 7 | 259 | 0.0 | 1.6 | 0.00 | 0.00 | 0.00 | 58 | 1015.1 |
| 20260504023243 | 7 | 259 | 0.0 | 1.6 | 0.00 | 0.00 | 0.00 | 58 | 1015.0 |
| 20260504022736 | 7 | 259 | 0.0 | 1.6 | 0.00 | 0.00 | 0.00 | 60 | 1014.9 |
| 20260504022238 | 8 | 259 | 0.0 | 1.6 | 0.00 | 0.00 | 0.00 | 58 | 1014.9 |
| 20260504021741 | 8 | 259 | 0.0 | 1.6 | 0.00 | 0.00 | 0.00 | 56 | 1014.9 |
| 20260504021238 | 8 | 259 | 0.0 | 3.2 | 0.00 | 0.00 | 0.00 | 58 | 1014.9 |
| 20260504020740 | 8 | 259 | 0.0 | 3.2 | 0.00 | 0.00 | 0.00 | 56 | 1014.9 |
| 20260504020235 | 8 | 259 | 0.0 | 3.2 | 0.00 | 0.00 | 0.00 | 56 | 1014.8 |
| 20260504015734 | 8 | 259 | 0.0 | 3.2 | 0.00 | 0.00 | 0.00 | 55 | 1014.8 |
| 20260504015235 | 8 | 259 | 0.0 | 4.8 | 0.00 | 0.00 | 0.00 | 55 | 1014.7 |
| 20260504014734 | 8 | 259 | 0.0 | 4.8 | 0.00 | 0.00 | 0.00 | 55 | 1014.7 |
| 20260504014231 | 8 | 259 | 0.0 | 3.2 | 0.00 | 0.00 | 0.00 | 53 | 1014.8 |
| 20260504013731 | 8 | 259 | 0.0 | 3.2 | 0.00 | 0.00 | 0.00 | 54 | 1014.7 |
| 20260504013231 | 8 | 259 | 0.0 | 3.2 | 0.00 | 0.00 | 0.00 | 54 | 1014.6 |
| 20260504012730 | 9 | 259 | 0.0 | 4.8 | 0.00 | 0.00 | 0.00 | 53 | 1014.6 |
| 20260504012230 | 9 | 259 | 1.6 | 4.8 | 0.00 | 0.00 | 0.00 | 51 | 1014.5 |
| 20260504011727 | 9 | 259 | 1.6 | 8.0 | 0.00 | 0.00 | 0.00 | 53 | 1014.5 |
| 20260504011227 | 9 | 259 | 3.2 | 11.3 | 0.00 | 0.00 | 0.00 | 52 | 1014.4 |
| 20260504010724 | 9 | 276 | 3.2 | 11.3 | 0.00 | 0.00 | 0.00 | 51 | 1014.5 |
| 20260504010222 | 9 | 262 | 3.2 | 6.4 | 0.00 | 0.00 | 0.00 | 52 | 1014.6 |
| 20260504005722 | 9 | 259 | 1.6 | 6.4 | 0.00 | 0.00 | 0.00 | 52 | 1014.6 |
| 20260504005223 | 9 | 264 | 1.6 | 4.8 | 0.00 | 0.00 | 0.00 | 51 | 1014.5 |
| 20260504004723 | 9 | 264 | 1.6 | 4.8 | 0.00 | 0.00 | 0.00 | 51 | 1014.5 |
| 20260504004223 | 9 | 264 | 1.6 | 8.0 | 0.00 | 0.00 | 0.00 | 51 | 1014.4 |
| 20260504003727 | 10 | 264 | 1.6 | 8.0 | 0.00 | 0.00 | 0.00 | 51 | 1014.5 |
| 20260504003222 | 10 | 267 | 0.0 | 1.6 | 0.00 | 0.00 | 0.00 | 50 | 1014.4 |
| 20260504002722 | 10 | 267 | 0.0 | 4.8 | 0.00 | 0.00 | 0.00 | 49 | 1014.3 |
| 20260504002222 | 10 | 267 | 0.0 | 4.8 | 0.00 | 0.00 | 0.00 | 49 | 1014.4 |
| 20260504001720 | 10 | 267 | 0.0 | 4.8 | 0.00 | 0.00 | 0.00 | 48 | 1014.3 |
| 20260504001218 | 10 | 267 | 1.6 | 11.3 | 0.00 | 0.00 | 0.00 | 49 | 1014.3 |
| 20260504000717 | 11 | 267 | 3.2 | 12.9 | 0.00 | 0.00 | 0.00 | 49 | 1014.2 |
| 20260504000215 | 11 | 259 | 3.2 | 12.9 | 0.00 | 0.00 | 0.00 | 48 | 1014.1 |
| 20260503235715 | 11 | 253 | 1.6 | 6.4 | 0.00 | 0.00 | 0.00 | 48 | 1014.1 |
| 20260503235220 | 11 | 252 | 3.2 | 8.0 | 0.00 | 0.00 | 0.00 | 47 | 1014.2 |
| 20260503234714 | 11 | 254 | 4.8 | 14.5 | 0.00 | 0.00 | 0.00 | 48 | 1014.1 |
| 20260503234211 | 11 | 281 | 4.8 | 14.5 | 0.00 | 0.00 | 0.00 | 43 | 1014.0 |
| 20260503233711 | 12 | 257 | 1.6 | 9.7 | 0.00 | 0.00 | 0.00 | 48 | 1013.9 |
| 20260503233216 | 12 | 259 | 3.2 | 12.9 | 0.00 | 0.00 | 0.00 | 44 | 1013.9 |
| 20260503232716 | 12 | 261 | 6.4 | 17.7 | 0.00 | 0.00 | 0.00 | 46 | 1013.9 |
| 20260503232211 | 13 | 263 | 8.0 | 17.7 | 0.00 | 0.00 | 0.00 | 44 | 1013.9 |
| 20260503231713 | 13 | 259 | 8.0 | 16.1 | 0.00 | 0.00 | 0.00 | 43 | 1013.8 |
| 20260503231210 | 13 | 244 | 9.7 | 20.9 | 0.00 | 0.00 | 0.00 | 42 | 1013.9 |
| 20260503230717 | 13 | 334 | 9.7 | 20.9 | 0.00 | 0.00 | 0.00 | 40 | 1013.7 |
| 20260503230215 | 14 | 259 | 9.7 | 27.4 | 0.00 | 0.00 | 0.00 | 41 | 1013.7 |
| 20260503225720 | 14 | 292 | 8.0 | 27.4 | 0.00 | 0.00 | 0.00 | 39 | 1013.6 |
| 20260503225215 | 14 | 322 | 9.7 | 25.7 | 0.00 | 0.00 | 0.00 | 44 | 1013.6 |
| 20260503224710 | 14 | 288 | 9.7 | 25.7 | 0.00 | 0.00 | 0.00 | 40 | 1013.6 |
| 20260503224212 | 15 | 285 | 6.4 | 17.7 | 0.00 | 0.00 | 0.00 | 41 | 1013.6 |
| 20260503223713 | 15 | 264 | 8.0 | 17.7 | 0.00 | 0.00 | 0.00 | 39 | 1013.6 |
| 20260503223214 | 15 | 306 | 8.0 | 17.7 | 0.00 | 0.00 | 0.00 | 39 | 1013.7 |
| 20260503222710 | 15 | 284 | 8.0 | 20.9 | 0.00 | 0.00 | 0.00 | 43 | 1013.8 |
| 20260503222216 | 15 | 244 | 8.0 | 20.9 | 0.00 | 0.00 | 0.00 | 40 | 1013.8 |
| 20260503221709 | 15 | 246 | 9.7 | 24.1 | 0.00 | 0.00 | 0.00 | 40 | 1013.8 |
| 20260503221212 | 15 | 269 | 11.3 | 24.1 | 0.00 | 0.00 | 0.00 | 37 | 1013.8 |
| 20260503220708 | 15 | 271 | 11.3 | 25.7 | 0.00 | 0.00 | 0.00 | 42 | 1013.9 |
| 20260503220215 | 15 | 250 | 11.3 | 25.7 | 0.00 | 0.00 | 0.00 | 43 | 1013.7 |
| 20260503215715 | 15 | 230 | 9.7 | 20.9 | 0.00 | 0.00 | 0.00 | 40 | 1013.7 |
| 20260503215211 | 15 | 282 | 8.0 | 16.1 | 0.00 | 0.00 | 0.00 | 46 | 1013.8 |
| 20260503214710 | 15 | 250 | 8.0 | 16.1 | 0.00 | 0.00 | 0.00 | 42 | 1013.8 |
| 20260503214215 | 15 | 301 | 6.4 | 16.1 | 0.00 | 0.00 | 0.00 | 42 | 1013.8 |
| 20260503213717 | 15 | 296 | 6.4 | 19.3 | 0.00 | 0.00 | 0.00 | 41 | 1013.9 |
| 20260503213207 | 15 | 290 | 6.4 | 19.3 | 0.00 | 0.00 | 0.00 | 42 | 1014.0 |
| 20260503212711 | 15 | 51 | 6.4 | 16.1 | 0.00 | 0.00 | 0.00 | 41 | 1014.0 |
| 20260503212207 | 15 | 253 | 8.0 | 17.7 | 0.00 | 0.00 | 0.00 | 41 | 1014.0 |
| 20260503211706 | 15 | 251 | 9.7 | 22.5 | 0.00 | 0.00 | 0.00 | 40 | 1013.7 |
| 20260503211207 | 15 | 234 | 11.3 | 27.4 | 0.00 | 0.00 | 0.00 | 49 | 1013.8 |
| 20260503210710 | 15 | 290 | 14.5 | 27.4 | 0.00 | 0.00 | 0.00 | 43 | 1013.7 |
| 20260503210205 | 15 | 249 | 12.9 | 27.4 | 0.00 | 0.00 | 0.00 | 45 | 1013.8 |
| 20260503205703 | 15 | 211 | 11.3 | 27.4 | 0.00 | 0.00 | 0.00 | 45 | 1013.7 |
| 20260503205204 | 15 | 258 | 11.3 | 25.7 | 0.00 | 0.00 | 0.00 | 41 | 1013.7 |
| 20260503204704 | 15 | 257 | 11.3 | 25.7 | 0.00 | 0.00 | 0.00 | 38 | 1013.8 |
| 20260503204204 | 15 | 271 | 9.7 | 25.7 | 0.00 | 0.00 | 0.00 | 43 | 1013.8 |
| 20260503203706 | 15 | 237 | 9.7 | 17.7 | 0.00 | 0.00 | 0.00 | 43 | 1013.9 |
| 20260503203207 | 15 | 270 | 8.0 | 17.7 | 0.00 | 0.00 | 0.00 | 39 | 1014.0 |
| 20260503202708 | 15 | 226 | 6.4 | 19.3 | 0.00 | 0.00 | 0.00 | 45 | 1013.9 |
| 20260503202200 | 15 | 257 | 6.4 | 19.3 | 0.00 | 0.00 | 0.00 | 41 | 1014.0 |
| 20260503201700 | 14 | 265 | 8.0 | 20.9 | 0.00 | 0.00 | 0.00 | 42 | 1014.0 |
| 20260503201203 | 14 | 341 | 9.7 | 20.9 | 0.00 | 0.00 | 0.00 | 41 | 1014.2 |
| 20260503200700 | 15 | 236 | 9.7 | 20.9 | 0.00 | 0.00 | 0.00 | 44 | 1014.2 |
| 20260503200200 | 14 | 256 | 9.7 | 29.0 | 0.00 | 0.00 | 0.00 | 46 | 1014.2 |
| 20260503195718 | 15 | 322 | 12.9 | 29.0 | 0.00 | 0.00 | 0.00 | 37 | 1014.1 |
| 20260503195205 | 15 | 288 | 12.9 | 32.2 | 0.00 | 0.00 | 0.00 | 39 | 1014.3 |
| 20260503194657 | 14 | 251 | 9.7 | 32.2 | 0.00 | 0.00 | 0.00 | 39 | 1014.4 |
| 20260503194158 | 14 | 241 | 8.0 | 22.5 | 0.00 | 0.00 | 0.00 | 50 | 1014.4 |
| 20260503193700 | 14 | 336 | 8.0 | 19.3 | 0.00 | 0.00 | 0.00 | 43 | 1014.4 |
| 20260503193158 | 14 | 338 | 8.0 | 19.3 | 0.00 | 0.00 | 0.00 | 39 | 1014.5 |
| 20260503192701 | 15 | 292 | 8.0 | 22.5 | 0.00 | 0.00 | 0.00 | 42 | 1014.6 |
| 20260503192155 | 14 | 278 | 9.7 | 22.5 | 0.00 | 0.00 | 0.00 | 45 | 1014.7 |
| 20260503191654 | 14 | 287 | 8.0 | 22.5 | 0.00 | 0.00 | 0.00 | 49 | 1014.7 |
| 20260503191155 | 14 | 251 | 9.7 | 24.1 | 0.00 | 0.00 | 0.00 | 47 | 1014.6 |
| 20260503190651 | 13 | 236 | 11.3 | 24.1 | 0.00 | 0.00 | 0.00 | 44 | 1014.7 |
| 20260503190154 | 13 | 228 | 11.3 | 24.1 | 0.00 | 0.00 | 0.00 | 50 | 1014.7 |
| 20260503185650 | 13 | 344 | 9.7 | 22.5 | 0.00 | 0.00 | 0.00 | 39 | 1014.9 |
| 20260503185154 | 13 | 330 | 8.0 | 22.5 | 0.00 | 0.00 | 0.00 | 43 | 1014.7 |
| 20260503184650 | 13 | 293 | 11.3 | 25.7 | 0.00 | 0.00 | 0.00 | 42 | 1015.1 |
| 20260503184156 | 13 | 290 | 12.9 | 32.2 | 0.00 | 0.00 | 0.00 | 41 | 1015.1 |
| 20260503183654 | 13 | 282 | 11.3 | 32.2 | 0.00 | 0.00 | 0.00 | 44 | 1015.1 |
| 20260503183156 | 13 | 259 | 9.7 | 24.1 | 0.00 | 0.00 | 0.00 | 47 | 1015.1 |
| 20260503182651 | 13 | 222 | 14.5 | 33.8 | 0.00 | 0.00 | 0.00 | 46 | 1015.1 |
| 20260503182155 | 13 | 224 | 14.5 | 33.8 | 0.00 | 0.00 | 0.00 | 53 | 1015.2 |
| 20260503181651 | 13 | 244 | 11.3 | 30.6 | 0.00 | 0.00 | 0.00 | 49 | 1015.2 |
| 20260503181153 | 12 | 263 | 9.7 | 27.4 | 0.00 | 0.00 | 0.00 | 54 | 1015.3 |
| 20260503180657 | 12 | 10 | 11.3 | 27.4 | 0.00 | 0.00 | 0.00 | 44 | 1015.3 |
| 20260503180156 | 12 | 228 | 11.3 | 24.1 | 0.00 | 0.00 | 0.00 | 44 | 1015.3 |
| 20260503175651 | 12 | 322 | 11.3 | 27.4 | 0.00 | 0.00 | 0.00 | 43 | 1015.2 |
| 20260503175148 | 12 | 267 | 11.3 | 27.4 | 0.00 | 0.00 | 0.00 | 45 | 1015.3 |
| 20260503174650 | 12 | 284 | 11.3 | 24.1 | 0.00 | 0.00 | 0.00 | 51 | 1015.4 |
| 20260503174148 | 12 | 309 | 11.3 | 25.7 | 0.00 | 0.00 | 0.00 | 50 | 1015.4 |
| 20260503173648 | 12 | 248 | 9.7 | 25.7 | 0.00 | 0.00 | 0.00 | 47 | 1015.4 |
| 20260503173153 | 12 | 246 | 12.9 | 30.6 | 0.00 | 0.00 | 0.00 | 43 | 1015.5 |
| 20260503172648 | 12 | 244 | 11.3 | 30.6 | 0.00 | 0.00 | 0.00 | 51 | 1015.5 |
| 20260503172148 | 12 | 255 | 8.0 | 27.4 | 0.00 | 0.00 | 0.00 | 54 | 1015.3 |
| 20260503171650 | 12 | 322 | 11.3 | 27.4 | 0.00 | 0.00 | 0.00 | 48 | 1015.5 |
| 20260503171148 | 12 | 261 | 14.5 | 33.8 | 0.00 | 0.00 | 0.00 | 48 | 1015.6 |
| 20260503170646 | 11 | 275 | 12.9 | 33.8 | 0.00 | 0.00 | 0.00 | 54 | 1015.4 |
| 20260503170152 | 11 | 231 | 11.3 | 25.7 | 0.00 | 0.00 | 0.00 | 51 | 1015.6 |
| 20260503160148 | 9 | 328 | 12.9 | 25.7 | 0.00 | 0.00 | 0.00 | 51 | 1016.5 |
| 20260503150640 | 8 | 289 | 12.9 | 30.6 | 0.00 | 0.00 | 0.00 | 58 | 1016.7 |
| 20260503150140 | 8 | 257 | 11.3 | 29.0 | 0.00 | 0.00 | 0.00 | 61 | 1016.6 |
| 20260503140146 | 7 | 269 | 8.0 | 22.5 | 0.00 | 0.00 | 0.00 | 62 | 1016.8 |
| 20260503131134 | 5 | 278 | 9.7 | 22.5 | 0.00 | 0.00 | 0.00 | 68 | 1016.8 |
| 20260503130636 | 5 | 282 | 8.0 | 22.5 | 0.00 | 0.00 | 0.00 | 68 | 1016.8 |
| 20260503130138 | 5 | 244 | 9.7 | 22.5 | 0.00 | 0.00 | 0.00 | 70 | 1016.6 |
| 20260503120145 | 2 | 331 | 4.8 | 16.1 | 0.00 | 0.00 | 0.00 | 73 | 1016.6 |
| 20260503110625 | 1 | 251 | 6.4 | 19.3 | 0.00 | 0.00 | 0.00 | 78 | 1015.7 |
| 20260503110125 | 1 | 341 | 6.4 | 16.1 | 0.00 | 0.00 | 0.00 | 78 | 1015.6 |
| 20260503100122 | 1 | 305 | 9.7 | 25.7 | 0.00 | 0.00 | 0.00 | 79 | 1014.7 |